Kansas City International, MO

1:58 PM CST on November 21, 2017 (GMT -0600)
Kansas City International

Weather History for KMCI - May, 2014

Change the Weather History Date:

Wednesday, May 14, 2014

  Actual Average Record
Temperature  
Mean Temperature 53 °F 64 °F  
Max Temperature 60 °F 74 °F 91 °F (1941)
Min Temperature 45 °F 54 °F 40 °F (1907)
Degree Days  
Heating Degree Days 12 4  
Month to date heating degree days 58 67  
Since 1 July heating degree days 5733 5087  
Cooling Degree Days 0 2  
Month to date cooling degree days 47 22  
Year to date cooling degree days 56 50  
Growing Degree Days 2 (Base 50)    
Moisture  
Dew Point 38 °F    
Average Humidity 62    
Maximum Humidity 83    
Minimum Humidity 40    
Precipitation  
Precipitation 0.00 in 0.17 in 2.30 in (1909)
Month to date precipitation 0.77 2.35  
Year to date precipitation 8.06 10.95  
Snow  
Snow 0.00 in 0.00 in 0.00 in ()
Month to date snowfall 0.0 0.0  
Since 1 July snowfall 26.1 18.8  
Snow Depth 0.00 in    
Sea Level Pressure  
Sea Level Pressure 30.21 in    
Wind  
Wind Speed 6 mph (NNW)    
Max Wind Speed 13 mph    
Max Gust Speed 15 mph    
Visibility 10 miles    
Events      
T = Trace of Precipitation, MM = Missing Value Source: NWS Daily Summary

Daily Weather History Graph

Daily Weather History Graph

Search for Another Location

Airport or City:

Trip Planner

Search our weather history database for the weather conditions in past years. The results will help you decide how hot, cold, wet, or windy it might be!

Date:

Astronomy

May. 14, 2014 Rise Set
Actual Time 6:06 AM CDT 8:24 PM CDT
Civil Twilight 5:36 AM CDT 8:54 PM CDT
Nautical Twilight 4:58 AM CDT 9:32 PM CDT
Astronomical Twilight 4:18 AM CDT 10:13 PM CDT
Moon 8:31 PM CDT (5/14) 6:05 AM CDT (5/14)
Length of Visible Light 15h 18m
Length of Day
14h 18m
Full, 100% of the Moon is Illuminated
May 14
Full
May 14
Full
May 21
Last Quarter
May 28
New
Jun 5
First Quarter

Hourly Weather History & Observations

Time (CDT) Temp. Windchill Dew Point Humidity Pressure Visibility Wind Dir Wind Speed Gust Speed Precip Events Conditions
12:53 AM 46.9 °F - 37.0 °F 68% 30.27 in 10.0 mi NNW 5.8 mph - N/A   Scattered Clouds
1:53 AM 46.0 °F 44.8 °F 39.0 °F 76% 30.27 in 10.0 mi North 3.5 mph - N/A   Scattered Clouds
2:53 AM 48.0 °F - 37.9 °F 68% 30.27 in 10.0 mi NNE 4.6 mph - N/A   Scattered Clouds
3:53 AM 46.0 °F 43.1 °F 39.0 °F 76% 30.26 in 10.0 mi North 5.8 mph - N/A   Scattered Clouds
4:53 AM 46.0 °F 43.9 °F 39.0 °F 76% 30.26 in 10.0 mi NNW 4.6 mph - N/A   Mostly Cloudy
5:53 AM 45.0 °F 42.6 °F 39.0 °F 80% 30.25 in 10.0 mi North 4.6 mph - N/A   Overcast
6:53 AM 46.0 °F 42.5 °F 39.0 °F 76% 30.25 in 10.0 mi NNW 6.9 mph - N/A   Overcast
7:53 AM 46.9 °F - 41.0 °F 80% 30.27 in 9.0 mi NW 4.6 mph - N/A   Overcast
8:53 AM 50.0 °F - 39.9 °F 68% 30.28 in 10.0 mi North 5.8 mph - N/A   Overcast
10:53 AM 55.0 °F - 39.9 °F 57% 30.26 in 10.0 mi North 6.9 mph - N/A   Mostly Cloudy
11:53 AM 55.9 °F - 36.0 °F 47% 30.26 in 10.0 mi NNE 9.2 mph - N/A   Mostly Cloudy
12:53 PM 57.0 °F - 35.1 °F 44% 30.24 in 10.0 mi NNE 11.5 mph - N/A   Mostly Cloudy
1:53 PM 57.0 °F - 36.0 °F 45% 30.24 in 10.0 mi North 6.9 mph - N/A   Mostly Cloudy
2:53 PM 59.0 °F - 36.0 °F 42% 30.20 in 10.0 mi NNE 8.1 mph - N/A   Mostly Cloudy
3:53 PM 59.0 °F - 35.1 °F 41% 30.18 in 10.0 mi West 5.8 mph - N/A   Overcast
4:53 PM 59.0 °F - 35.1 °F 41% 30.15 in 10.0 mi NW 6.9 mph - N/A   Mostly Cloudy
5:53 PM 59.0 °F - 37.0 °F 44% 30.13 in 10.0 mi Calm Calm - N/A   Overcast
6:53 PM 57.9 °F - 39.9 °F 51% 30.12 in 10.0 mi Calm Calm - N/A   Overcast
7:53 PM 55.0 °F - 44.1 °F 67% 30.12 in 10.0 mi South 4.6 mph - N/A   Mostly Cloudy
8:53 PM 52.0 °F - 37.9 °F 59% 30.12 in 10.0 mi South 5.8 mph - N/A   Mostly Cloudy
9:53 PM 51.1 °F - 41.0 °F 68% 30.13 in 10.0 mi South 5.8 mph - N/A   Overcast
10:53 PM 51.1 °F - 39.9 °F 66% 30.14 in 10.0 mi SW 5.8 mph - N/A   Overcast
11:53 PM 48.9 °F - 42.1 °F 77% 30.12 in 10.0 mi South 6.9 mph - N/A   Overcast